Meath Environmental Platform

Observations for Trim Market St

Time AQI Temp °C Hum % Pres Pa CO μg/m³ H₂S μg/m³ NO μg/m³ NO₂ μg/m³ O₃ μg/m³ SO₂ μg/m³ PM1 μg/m³ PM2.5 μg/m³ PM10 μg/m³
Tuesday 25 August 2026
15:00 3 26.4 39 65,748 0 0 1.02 17.81 92.77 0 2.85 6.64 7.53
14:59 3 26.4 39 65,750 0 0 1.01 17.52 104.24 0 4.28 7.7 9.15
14:58 3 26.5 39 65,752 0 0 0.95 20.49 84.38 0 3.56 6.64 8.34
14:56 3 26.6 39 65,756 0 0 0.93 18.41 79.75 0 3.56 5.59 9.96
14:55 3 26.6 39 65,760 0 0 0.93 19.23 89.35 0 1.43 5.58 5.9
14:54 3 26.6 39 65,764 0 0 0.9 16.1 81.24 0 1.43 4.51 4.96
14:53 3 26.6 39 65,768 0 0 0.91 15.75 85.11 0 3.56 6.1 6.72
14:52 3 26.7 39 65,768 0 0 0.92 20.09 89.31 0 2.14 4.51 5.91
14:51 3 26.7 39 65,770 0 2.94 0.96 23.93 106.49 0 2.85 6.64 7.53
14:50 3 26.7 39 65,776 0 2.88 0.98 23.94 95.92 0 2.85 7.19 8.34
14:49 3 26.8 38 65,786 0 2.85 1.04 27.53 87.89 0 2.14 5.08 5.08
14:48 3 26.8 38 65,793 0 0.13 1.09 23.28 97.45 0 1.43 4.56 5.01
14:46 3 26.9 38 65,813 0 0.21 1.09 20.43 86.73 0 2.85 5.64 5.89
14:39 3 27.1 37 65,831 0 0 1.15 20.74 87.39 0 2.14 5.15 5.66
14:37 3 27.1 37 65,839 0 0 1.13 25.48 79.65 0 3.56 7.29 9.17
14:35 3 27.2 37 65,819 0 0 0.97 17.76 91.41 0 1.43 5.68 5.88
14:33 3 27.2 37 65,809 0 0 1 16.81 81.15 0 3.56 7.26 9.17
14:26 2 26.8 39 65,772 0 1.3 0.91 23.96 96.6 0 3.56 7.19 8.34
14:25 3 26.8 39 65,774 0 0 0.91 24.46 88.58 0 2.14 5.6 6.71
14:24 2 26.7 39 65,778 0 1.55 0.89 22.5 88.96 0 0.71 4 4.4